#timestamp,LO_Frequency,Hit,StdDev 
1551283215.1,286047001.1,N
1551283235.9,286046998.7,N
1551283255.7,286046998.3,N
1551283275.6,286047002.2,N
1551283295.4,286046999.7,N
1551283315.2,286047001.7,N
1551283335.1,286047001.6,N
1551283336.0,286047001.6,N
1551283355.8,286047002.8,N
1551283375.6,286046999.7,N
1551283395.5,286047000.0,N
1551283415.3,286046998.7,N
1551283435.2,286046998.1,N
1551283455.9,286046999.0,N
1551283475.7,286046998.4,N
1551283495.6,286047000.5,N
1551283515.4,286047000.3,N
1551283535.2,286047000.4,N
1551283555.1,286046996.9,N
1551283556.0,286046996.9,N
1551283575.8,286046999.1,N
1551283595.7,286046998.3,N
1551283615.5,286047000.5,N
1551283635.3,286047000.0,N
1551283655.2,286046998.1,N
1551283675.0,286046998.4,N
1551283675.9,286046998.4,N
1551283695.8,286047000.6,N
1551283715.6,286046998.5,N
1551283735.4,286046998.7,N
1551283755.3,286046998.9,N
1551283775.1,286046998.2,N
1551283795.8,286046998.8,N
1551283815.7,286046996.6,N
1551283835.5,286046997.4,N
1551283855.4,286046999.2,N
1551283875.2,286046999.1,N
1551283895.0,286046997.1,N
1551283895.9,286046997.1,N
1551283915.8,286046995.0,Y
1551283935.6,286046998.4,P
1551283955.4,286046996.6,P
1551283975.3,286046996.9,P
1551283995.1,286046997.4,N
1551284015.9,286046996.8,Y
1551284035.7,286046999.9,P
1551284055.5,286047000.4,N
1551284075.4,286046998.4,N
1551284095.2,286046999.4,N
1551284115.1,286046999.5,N
1551284116.0,286046999.5,N
1551284135.8,286047000.5,N
1551284155.6,286047002.7,N
1551284175.5,286046998.6,N
1551284195.3,286047000.8,N
1551284215.1,286046998.2,N
1551284235.9,286046998.1,N
1551284255.7,286046996.8,N
1551284275.6,286046997.0,N
1551284295.4,286046997.1,N
1551284315.2,286047000.8,N
1551284335.1,286046999.0,N
1551284336.0,286046999.0,N
1551284355.8,286046999.0,N
1551284375.7,286046999.6,N
1551284395.5,286046999.2,N
1551284415.3,286046998.4,N
1551284435.2,286046998.2,N
1551284455.0,286047000.5,N
1551284455.9,286047000.5,N
1551284475.7,286047000.8,N
1551284495.6,286047000.4,N
1551284515.4,286047000.9,N
1551284535.3,286047000.9,N
1551284555.1,286046999.0,N
1551284556.0,286046999.0,N
1551284575.8,286046999.1,N
1551284595.7,286047000.5,N
1551284615.5,286046998.4,N
1551284635.3,286046996.6,N
1551284655.2,286046998.3,N
1551284675.0,286047000.9,N
1551284675.9,286047000.9,N
1551284695.8,286047001.2,N
1551284715.6,286046999.4,N
1551284735.4,286046997.1,N
1551284755.3,286046997.0,N
1551284775.1,286046997.2,N
1551284795.9,286046996.9,N
1551284815.7,286046998.7,N
1551284835.5,286047000.7,N
1551284855.4,286047001.0,N
1551284875.2,286046998.3,N
1551284895.0,286046997.0,N
1551284895.9,286046997.0,N
1551284915.8,286046999.5,N
1551284935.6,286046999.0,N
1551284955.5,286047001.2,N
1551284975.3,286046998.4,N
1551284995.1,286046998.9,N
1551285015.9,286046999.4,N
1551285035.7,286046999.4,N
1551285055.6,286046997.0,N
1551285075.4,286046998.0,N
1551285095.2,286046995.8,N
1551285115.1,286046995.5,N
1551285116.0,286046995.5,N
1551285135.8,286046995.3,N
1551285155.6,286046999.5,N
1551285175.5,286046996.7,N
1551285195.3,286046995.7,N
1551285215.2,286046993.3,Y
1551285235.9,286046993.3,P
1551285255.7,286046993.9,N
1551285275.6,286046993.3,P
1551285295.4,286046995.4,N
1551285315.3,286046997.9,N
1551285335.1,286046998.0,N
1551285336.0,286046998.0,N
1551285355.8,286046997.2,N
1551285375.7,286046997.9,N
1551285395.5,286046996.9,N
1551285415.3,286046998.0,N
1551285435.2,286046997.5,N
1551285455.0,286046996.8,N
1551285455.9,286046996.8,N
1551285475.8,286046998.4,N
1551285495.6,286047001.0,N
1551285515.4,286046998.2,N
1551285535.3,286046999.9,N
1551285555.1,286047000.9,N
1551285575.8,286047002.6,N
1551285595.7,286047002.4,N
1551285615.5,286047002.7,N
1551285635.4,286047000.8,N
1551285655.2,286047000.9,N
1551285675.0,286047001.1,N
1551285675.9,286047001.1,N
1551285695.8,286047001.2,N
1551285715.6,286047000.7,N
1551285735.5,286047000.7,N
1551285755.3,286046999.8,N
1551285775.1,286046999.7,N
1551285795.9,286047000.7,N
1551285815.7,286047002.8,N
1551285835.5,286047000.2,N
1551285855.4,286047000.6,N
1551285875.2,286046998.7,N
1551285895.1,286047000.8,N
1551285896.0,286047000.8,N
1551285915.8,286046999.7,N
1551285935.6,286047002.5,N
1551285955.5,286047000.7,N
1551285975.3,286047001.1,N
1551285995.2,286047000.9,N
1551286015.9,286047001.6,N
1551286035.7,286047002.0,N
1551286055.6,286047002.2,N
1551286075.4,286047001.5,N
1551286095.2,286047002.2,N
1551286115.1,286047002.4,N
1551286116.0,286047002.4,N
1551286135.8,286047000.5,N
1551286155.7,286047002.0,N
1551286175.5,286046999.9,N
1551286195.3,286047000.2,N
1551286215.2,286047000.4,N
1551286235.0,286046999.8,N
1551286235.9,286046999.8,N
1551286255.8,286047005.6,Y
1551286275.6,286047004.3,P
1551286295.4,286047001.9,N
1551286315.3,286047004.4,P
1551286335.1,286047002.4,N
1551286355.8,286047000.0,N
1551286375.7,286046999.7,N
1551286395.5,286046999.7,N
1551286415.4,286047002.1,N
1551286435.2,286046998.1,N
1551286455.0,286047000.5,N
1551286455.9,286047000.5,N
1551286475.8,286047002.6,N
1551286495.6,286047000.2,N
1551286515.4,286047002.5,N
1551286535.3,286047001.8,N
1551286555.1,286046999.9,N
1551286575.9,286046998.3,N
1551286625.7,286046999.6,E
1551286635.6,286046998.9,N
1551286655.5,286046999.4,P
1551286675.3,286046998.4,P
1551286695.2,286047000.1,N
1551286715.9,286047000.1,N
1551286735.7,286047001.0,N
1551286755.6,286047002.7,Y
1551286775.4,286046998.6,P
1551286795.3,286046999.0,N
